Find Local Weather

World > North America > United States > California

La Jolla, California Regional Weather

Lat: 32.85N, Lon: 117.27W
Wx Zone: CAZ043
Feedback
Expires:201806180100;;700248
ASUS46 KSGX 180011
RWRSGX

SAN DIEGO HOURLY WEATHER ROUNDUP
NATIONAL WEATHER SERVICE SAN DIEGO CA
500 PM PDT SUN JUN 17 2018

NOTE: "FAIR" INDICATES FEW OR NO CLOUDS BELOW 12,000 FEET WITH NO 
SIGNIFICANT WEATHER AND/OR OBSTRUCTIONS TO VISIBILITY.


CAZ042-043-060-061-PZZ750-775-180100-

GREATER SAN DIEGO AREA
  
CITY           SKY/WX    TMP DP  RH WIND       PRES   REMARKS
SAN DIEGO AP   PTSUNNY   68  51  54 SW10      29.99S                  
NATIONAL CITY    N/A     69  55  60 W8        29.99S                  
CHULA VISTA      N/A     69  56  62 W8        29.90S                  
IMPERIAL BEACH MOSUNNY   68  50  52 W13G21    29.99S                  
BROWN FIELD    PTSUNNY   66  50  56 W10       29.97S                  
MIRAMAR MCAS   CLOUDY    68  51  54 W8        29.97F                  
MONTGOMERY FLD PTSUNNY   66  50  56 SW8       29.98S                  
GILLESPIE FLD  PTSUNNY   68  52  56 W10G20    29.97S                  

$$

NORTH SAN DIEGO COUNTY
  
CITY           SKY/WX    TMP DP  RH WIND       PRES   REMARKS
CAMP PENDLETON SUNNY     67  53  61 SW8       29.96S                  
OCEANSIDE AP   SUNNY     68  52  56 W14       29.96S                  
OCEANSIDE HBR    N/A     66  57  73 SW6       29.99S                  
VISTA            N/A     67  53  62 SW5       29.94R                  
CARLSBAD       MOSUNNY   65  52  62 W12       29.96S                  
DEL MAR          N/A     67  55  65 W2        29.98F                  
LA JOLLA SCRIP   N/A     65  56  72 SW5       29.97F                  
FALLBROOK        N/A     70  54  56 S6        29.95S                  
ESCONDIDO        N/A     69  53  56 SW3       29.96S                  
SAN MARCOS       N/A     67  54  63 CALM      30.00S                  
POWAY            N/A     69  53  57 SW3       29.95F                  

$$

EAST SAN DIEGO COUNTY
  
CITY           SKY/WX    TMP DP  RH WIND       PRES   REMARKS
RAMONA         SUNNY     67  49  52 W13       29.96S                  
SANTEE LAKES     N/A     68  55  62 W10       29.96R                  
LA MESA          N/A     67  52  59 CALM      29.91F                  
JAMUL            N/A     66  52  60 CALM      29.96S                  
CAMPO            N/A     66  46  48 SW18G24   29.92R                  

$$

ORANGE COUNTY AND THE LOS ANGELES BASIN
  
CITY           SKY/WX    TMP DP  RH WIND       PRES   REMARKS
JOHN WAYNE AP  PTSUNNY   67  52  58 SW9       29.96S                  
LAGUNA BEACH     N/A     69  57  64 CALM      29.92F                  
HUNTINGTON BCH   N/A     71  59  66 SW3       29.97S                  
LOS ALAMITOS   CLOUDY    68  52  55 S10       29.95F                  
FULLERTON      PTSUNNY   71  52  50 VRB6      29.94F                  
LONG BEACH     CLOUDY    68  52  56 S8        29.95F                  
L.A. AP        MOSUNNY   67  53  61 W13       29.96S                  
L.A. DOWNTOWN  CLOUDY    69  52  54 VRB3      29.94F                  

$$

THE INLAND EMPIRE
  
CITY           SKY/WX    TMP DP  RH WIND       PRES   REMARKS
CORONA         SUNNY     71  52  50 W15G23    29.93S                  
CHINO          MOSUNNY   73  49  42 SW14      29.94S                  
ONTARIO        MOSUNNY   71  49  45 W17G23    29.93S                  
SAN BERNARDINO MOSUNNY   75  46  35 SW12      29.92S                  
RIVERSIDE AP   SUNNY     71  49  45 W16G23    29.93R                  
MARCH ARB      SUNNY     71  49  44 NW15      29.92S                  
HORSETHIEF CYN   N/A     72  46  39 E8        29.90S                  
PERRIS           N/A     76  54  46 S1          N/A                   
HEMET EAST       N/A     73  44  35 SW6       29.86S                  
FRENCH VALLEY  FAIR      68  46  45 SW13      29.94S                  
TEMECULA         N/A     71  53  52 SW8       29.95F                  

$$

SAN BERNARDINO AND RIVERSIDE COUNTY MOUNTAINS
  
CITY           SKY/WX    TMP DP  RH WIND       PRES   REMARKS
BIG BEAR AP    SUNNY     61   3  10 W13G18    30.04F                  
ANGELUS OAKS     N/A     62  44  53 W1        29.80S                  

$$

SOUTHERN DESERT INCLUDING THE COACHELLA VALLEY
  
CITY           SKY/WX    TMP DP  RH WIND       PRES   REMARKS
PALM SPRINGS   SUNNY     90  41  18 CALM      29.73F                  
THOUSAND PALMS   N/A     89  46  21 NW9       29.69F                  
PALM DESERT      N/A     91  46  20 E2        28.16S                  
THERMAL        SUNNY     96  42  15 NE6       29.68F                  
BLYTHE         SUNNY     94  41  16 S21G29    29.71F                  
IMPERIAL AP    SUNNY     90  37  15 W26G35    29.71S                  
EL CENTRO NAS  LGT RAIN  90  29  11 W33G41    29.74S                  
YUMA AZ        SUNNY     96  47  18 W9        29.70F                  
MEXICALI       SUNNY     91  36  14 NW7       29.73S                  

$$

UPPER DESERT
  
CITY           SKY/WX    TMP DP  RH WIND       PRES   REMARKS
VICTORVILLE AP SUNNY    N/A N/A N/A W12       29.88S                  
HESPERIA         N/A     68  47  47 W9        29.87R                  
APPLE VALLEY     N/A     73  47  39 N13       29.84S                  
PALMDALE       SUNNY     69  44  40 SW25G35   29.88S                  
LANCASTER      SUNNY     68  47  46 SW23G35   29.89S                  
EDWARDS AFB    SUNNY     70  45  40 SW29G40   29.83F                  
DAGGETT        SUNNY     85  43  22 SW23G30   29.78R                  
29 PALMS N     SUNNY     89  21   8 SW9       29.80F                  
NEEDLES        SUNNY     98  32  10 S21G36    29.68F                  

$$

REGIONAL REPORTS
  
CITY           SKY/WX    TMP DP  RH WIND       PRES   REMARKS
SANTA BARBARA  CLOUDY    64  50  60 W14       29.96S                  
SANDBERG       MOSUNNY   56  47  71 S10G21    29.99F                  
LAS VEGAS NV   SUNNY     90  23   9 SW21G36   29.67R                  
PHOENIX AZ     MOSUNNY  100  36  11 S18G24    29.71F                  
TIJUANA        PTSUNNY   66  50  55 W8        30.00S                  
ENSENADA NW      N/A     67  32  27 CALM      29.91F                  

$$

OFFSHORE ISLANDS
  
CITY           SKY/WX    TMP DP  RH WIND       PRES   REMARKS
CATALINA ARPT  CLOUDY    57  53  86 W9        29.98S                  
SAN CLEMENTE I CLOUDY    62  55  77 W10       29.99S                  
SAN NICOLAS IS CLOUDY    62  58  86 SW9       29.98S                  

$$

MARINE AND OFFSHORE BUOY REPORTS
  
STATION/POSITION SKY/WX   TEMP    WIND        PRES    VSBY  SWELL
                          AIR SEA DIR/SP/G                  HT/PER/DIR
                          (F)     (DEG/KT/KT) (MB)    (MI)  (FT/S/D)
TANNER BANKS               59 60              1015.4S
S CLEMENTE BASIN           61 66  280/ 10/ 14 1015.3F         5/240/16
SAN NICOLAS IS.               58                N/A           5/310/11
SO. S. ROSA ISLA           58 59  300/ 10/ 10 1015.4          7/310/11
W. S. BARBARA CH              63  300/  8/ 12 1014.9S         5/300/10
M. S. BARBARA CH           60 63  270/ 12/ 14 1015.2F         2/260/ 8
S. MONICA BASIN            61 67  280/  6/  8 1014.6F
S PEDRO CHANNEL               66                N/A           2/260/14
CMP PENDLETON NS              69                N/A           3/220/15
OCEANSIDE OFFSHR              69                N/A           2/200/17
TORREY PINES OTR              68                N/A           3/200/15
SAN DIEGO BAY                 71              1014.8S
POINT LOMA SOUTH              67                N/A           3/280/11

$$

  

SKY/WX - Weather  TMP - Temperature  DP - Dewpoint  RH - Relative Humidity
WIND - Wind Direction/Speed PRES - Barometric Pressure